Location: G�migny
(47.9646°N, 1.6950°E)
Time: 05:50:23
(UTC+00:00)

Lacrosse 5 - Pass Details

Date: 23 October 2019
Orbit: 715 x 724 km, 57.0° (Epoch: 12 November)

Event Time Altitude Azimuth Distance (km) Brightness Sun altitude
Rises 18:12:49 0° 304° (NW) 3,125 6.1 -14.4°
Reaches altitude 10° 18:15:15 10° 299° (WNW) 2,201 5.3 -14.8°
Maximum altitude 18:20:07 49° 226° (SW) 926 2.7 -15.6°
Drops below altitude 10° 18:24:57 10° 153° (SSE) 2,189 4.1 -16.4°
Enters shadow 18:25:45 - 150° (SSE) 2,484 4.4 -16.6°
